Tracking 25648 objects as of 16-May-2022
HD Live streaming from Space Station
objects crossing your sky now

ORBCOMM FM 15

Track ORBCOMM FM 15 now!
10-day predictions
ORBCOMM FM 15 is classified as:


NORAD ID: 25418
Int'l Code: 1998-046F
Perigee: 785.1 km
Apogee: 789.3 km
Inclination: 45.0 °
Period: 100.5 minutes
Semi major axis: 7158 km
RCS: 0.6025 m2 (medium)
Launch date: August 2, 1998
Source: ORBCOMM (ORB)
Launch site: Pegasus launched from Eastern Range Air Space (ERAS)
aabbcc
Your satellite tracking list
Your tracking list is empty




NASA's NSSDC Master Catalog

Two Line Element Set (TLE):
1 25418U 98046F   22135.95873861  .00000849  00000-0  35498-3 0  9990
2 25418  44.9981 105.7315 0002921   4.7710  34.2576 14.33494624242131
Source of the keplerian elements: AFSPC